RH
29 19 14 91 98 22 41 95 91 99 96 56 97 100 100 88 64 62 53 24 47 25 35 37 35 37 43 40 38 27 29 40 46 42 43 51 64 72 78 62 34 44 65 71
28 18 15 26 37 36 34 100 100 100 59 48 100 86 96 97 61 65 48 32 22 18 20 20 20 23 26 26 25 23 20 22 30 40 30 34 43 43 37 34 32 39 74 83
27 28 15 22 35 48 34 99 95 100 99 56 67 74 100 76 78 62 58 73 65 36 17 16 18 19 19 19 19 19 20 23 27 32 40 49 53 52 56 51 39 40 53 77
27 19 16 20 34 44 100 77 56 54 76 100 98 97 96 99 49 36 37 44 33 26 20 21 20 20 19 18 18 17 20 25 27 31 30 38 44 57 61 44 43 36 54 84
29 20 16 16 32 36 80 86 44 47 100 100 100 99 94 65 51 73 30 40 29 28 28 26 23 20 18 18 18 18 19 21 27 28 22 20 28 59 67 47 41 41 38 48
27 20 17 18 22 35 48 52 48 54 98 87 99 92 94 100 98 99 86 21 33 48 68 68 72 65 59 38 29 35 41 38 54 43 28 22 29 48 65 76 70 68 56 74
27 20 18 17 17 31 41 57 91 98 98 68 96 62 98 92 88 44 41 26 30 44 63 63 55 65 67 87 53 44 41 44 61 47 30 57 76 63 62 63 82 84 99 98
28 24 16 20 17 45 38 68 94 97 93 98 59 57 96 85 51 53 38 30 31 43 62 58 57 64 59 96 93 84 70 62 42 42 40 54 54 43 38 40 80 86 79 93
26 29 26 19 19 25 79 49 96 99 70 61 80 93 73 52 49 46 57 55 54 61 68 80 66 51 45 72 84 79 60 57 37 48 42 48 29 23 23 50 48 30 32 77
32 96 42 25 20 21 39 75 68 70 91 91 98 93 98 86 44 37 42 49 52 70 71 86 63 52 46 29 26 30 31 26 22 19 20 23 21 23 32 38 37 41 60 68
36 58 75 22 18 22 23 46 66 93 98 99 100 97 96 63 56 47 41 42 43 53 74 94 97 92 62 55 24 22 25 24 22 21 20 26 37 46 38 40 59 66 65 49
30 32 100 25 28 31 100 52 98 100 93 82 70 60 98 69 66 50 50 47 50 66 81 84 77 65 67 82 48 29 26 25 23 22 22 29 24 31 41 54 53 42 37 53
36 32 55 93 28 24 27 70 100 97 96 95 73 66 98 65 58 49 56 47 45 44 33 31 31 34 44 69 72 51 48 46 38 35 42 55 71 83 83 62 38 38 50 58
45 37 32 49 66 43 27 30 83 100 69 52 72 100 100 98 93 94 95 38 40 38 24 24 20 18 18 19 20 44 77 92 96 99 100 96 84 68 48 58 54 66 56 22
44 35 38 38 100 100 98 73 57 87 97 87 59 100 98 100 90 99 88 53 22 23 28 21 12 8 9 10 10 11 19 22 22 24 35 52 54 63 72 89 94 54 14 11
47 42 41 32 45 100 98 92 100 97 98 46 60 87 96 95 95 44 37 46 54 33 26 16 10 8 10 12 17 16 12 22 30 59 75 100 100 88 77 60 19 12 13 14
52 48 45 32 34 62 50 17 34 44 76 55 31 44 99 99 94 43 26 28 37 57 23 12 8 10 16 18 22 20 21 40 48 44 32 42 45 38 17 13 13 16 20 22
75 60 53 37 40 31 17 26 30 31 26 27 30 29 86 95 52 25 21 27 25 14 8 13 27 35 37 33 27 21 18 19 24 33 47 44 35 17 13 16 20 25 32 37
98 74 63 42 31 28 30 23 35 51 32 46 66 68 100 80 25 16 15 12 13 19 26 24 24 22 23 26 24 22 28 39 45 44 40 25 16 15 20 22 32 41 45 47
100 94 72 53 44 36 23 29 45 64 34 40 88 87 49 12 14 14 15 24 23 19 14 19 23 23 25 30 33 37 41 43 42 29 20 17 19 23 27 36 41 46 41 41
95 79 76 82 51 33 31 36 51 50 58 83 48 40 30 24 16 17 18 30 36 22 12 18 23 23 27 32 37 39 40 27 21 20 19 20 21 24 31 39 38 37 41 50
94 93 88 95 81 59 45 36 46 63 77 50 42 28 19 20 26 29 36 52 47 39 21 12 23 25 28 33 34 22 18 19 19 20 21 21 24 28 34 36 37 43 54 65
100 95 100 94 69 69 58 59 70 92 80 59 63 48 41 34 36 40 54 57 43 45 28 15 27 35 39 39 21 18 18 19 20 21 21 24 28 39 39 41 50 59 68 71
81 98 92 100 97 92 70 58 58 76 88 83 65 42 42 42 44 54 54 62 63 59 32 14 20 34 35 22 18 20 21 22 22 23 25 32 44 47 51 62 69 72 76 77
58 78 84 82 73 79 63 62 99 94 97 90 92 74 54 50 66 72 76 72 68 61 19 18 16 19 19 20 22 23 24 26 27 31 41 50 59 70 76 74 74 77 80 78
54 64 82 78 81 97 98 98 98 98 97 97 100 98 71 76 80 75 70 69 66 58 29 20 18 20 24 25 26 28 29 33 44 53 62 74 82 79 75 74 75 81 75 74
Wind_Speed
18 15 13 7 11 8 15 13 9 11 17 18 10 2 10 23 19 15 13 8 6 4 4 2 2 4 6 5 4 5 9 8 7 4 3 4 5 7 9 11 13 14 19 20
18 13 10 6 4 6 10 7 8 13 13 12 10 6 18 13 17 13 12 7 5 4 5 6 5 4 5 5 5 5 5 5 4 5 7 8 10 11 13 15 17 20 21 19
17 14 10 7 6 7 12 10 17 16 4 7 6 6 13 18 18 7 11 8 3 7 5 4 4 5 5 5 6 6 7 8 10 11 12 12 14 16 17 18 19 20 19 20
17 14 12 10 9 9 5 9 15 14 12 13 15 18 15 14 6 4 4 5 6 7 4 4 4 5 6 7 8 9 10 11 13 13 15 16 17 17 18 18 19 20 20 22
15 16 13 12 12 13 9 16 12 11 9 9 4 9 12 5 9 10 9 8 9 7 5 6 7 8 9 9 10 11 12 13 14 15 17 18 18 20 20 20 22 24 23 25
23 18 15 11 15 13 13 8 9 8 8 7 9 8 7 10 7 11 14 13 12 9 9 11 13 14 15 15 15 15 16 15 14 17 19 21 22 22 22 24 26 27 29 29
24 16 16 12 14 16 14 13 6 9 12 8 14 12 13 10 15 17 17 17 18 15 14 15 17 18 16 17 19 18 18 18 17 16 17 19 19 21 20 22 25 28 40 33
23 21 17 11 14 15 15 16 9 8 8 16 10 6 11 19 19 17 16 18 20 22 24 25 23 21 19 17 19 21 20 20 18 19 18 18 19 21 22 27 28 29 38 41
27 21 20 17 16 19 15 20 19 16 18 13 10 8 11 20 18 20 20 21 24 23 23 21 19 18 17 17 20 22 21 20 18 21 22 22 23 24 26 27 31 35 39 39
28 22 23 18 19 21 21 19 21 23 16 13 12 12 15 15 17 16 20 23 22 25 25 21 18 17 16 18 18 19 20 21 21 21 23 25 28 30 31 31 34 39 41 42
33 28 31 24 19 17 23 24 22 20 20 17 14 12 12 15 13 16 19 21 23 25 24 22 21 19 21 21 22 20 22 24 25 25 26 27 31 31 34 38 40 40 41 43
34 32 29 22 19 21 18 23 24 26 23 26 25 19 19 19 19 20 18 20 21 21 24 25 23 22 22 26 26 24 25 28 29 29 31 30 32 35 38 42 46 45 44 45
38 38 31 22 25 22 22 21 22 25 25 27 25 20 12 22 23 25 17 22 22 23 23 24 25 26 27 29 30 30 29 31 32 32 33 35 38 41 43 46 46 46 47 48
37 37 36 28 18 18 19 23 24 25 28 26 26 18 20 21 20 22 21 23 25 24 23 23 23 24 27 30 33 36 38 38 39 40 41 43 45 45 46 45 46 47 48 48
42 40 35 31 25 21 19 22 24 26 27 28 24 22 20 22 25 19 28 28 25 28 26 24 25 25 26 28 29 31 35 38 41 40 39 39 41 43 45 46 44 45 46 47
39 41 37 34 33 28 28 25 24 23 24 27 26 25 24 28 24 24 28 32 32 27 27 27 28 29 30 31 30 31 33 35 36 33 34 35 39 38 40 41 42 43 44 45
43 43 38 37 31 30 34 25 24 24 25 23 26 23 18 24 28 27 26 28 32 31 29 29 31 33 34 33 34 33 33 35 37 38 38 36 37 38 39 39 40 43 45 47
43 41 40 35 35 40 22 24 21 25 22 24 26 24 23 26 30 25 21 22 24 27 28 29 30 32 32 32 33 33 34 35 36 37 38 39 39 39 40 41 43 45 48 51
42 37 41 39 38 34 31 27 21 20 21 22 24 21 23 28 22 22 23 24 24 26 27 28 29 31 31 31 31 31 32 33 34 36 38 38 39 40 41 43 46 48 51 53
37 36 37 38 40 42 25 24 20 24 23 21 22 27 25 26 24 27 24 26 25 26 29 30 31 31 31 30 30 31 32 33 35 36 36 37 39 41 43 45 48 51 53 57
49 44 40 38 39 34 27 27 22 29 8 19 25 29 25 27 28 26 27 28 30 30 30 30 31 31 31 31 32 32 33 33 34 35 37 39 41 43 45 48 51 53 57 61
47 43 44 36 39 39 30 25 25 16 24 26 28 32 33 33 32 31 31 31 32 33 33 32 33 32 32 32 33 33 34 35 36 38 40 42 44 46 49 52 55 58 61 64
34 40 43 43 40 33 30 29 27 24 23 28 30 32 33 33 33 31 32 33 35 36 35 34 34 35 36 36 34 35 37 38 40 42 44 45 47 50 54 57 60 63 65 64
46 42 40 41 37 36 34 33 30 28 28 32 32 33 32 33 32 31 33 34 35 37 37 36 36 37 38 36 37 38 39 41 43 45 46 49 52 55 58 61 64 65 63 64
45 47 47 45 43 40 40 35 31 34 36 35 34 35 34 33 33 31 33 36 41 38 36 36 36 35 36 38 39 41 43 45 46 48 51 54 57 59 62 63 64 63 64 67
42 40 42 43 42 42 45 37 39 37 37 36 38 38 37 36 37 36 38 39 40 39 40 39 37 38 39 41 43 45 47 48 50 53 56 58 61 61 63 64 63 65 68 69
Wind_Direction
287 303 314 319 272 261 202 211 239 256 271 267 238 196 302 291 292 292 280 257 210 231 198 161 110 127 134 143 161 165 156 159 153 159 159 182 195 208 223 240 253 252 251 247
277 295 298 290 291 252 222 216 225 257 269 247 239 232 272 274 293 277 266 248 233 242 215 185 190 198 195 187 185 189 193 214 224 247 249 248 241 246 255 259 258 253 250 251
268 276 275 270 268 260 225 184 243 242 221 288 271 287 246 286 284 309 254 274 234 252 235 217 207 214 223 232 233 239 233 236 240 243 250 255 262 265 267 267 263 259 255 249
255 264 262 244 248 260 206 260 223 221 249 259 245 264 209 264 222 307 312 282 261 239 235 225 229 234 238 242 248 250 254 262 269 273 277 279 278 272 267 269 262 261 259 265
252 249 249 245 236 253 203 230 239 231 223 243 273 249 302 184 278 285 294 270 258 253 255 272 271 269 260 255 250 255 260 265 269 274 277 282 284 282 279 276 268 269 265 267
238 243 243 234 234 240 249 225 218 239 241 243 245 221 265 233 219 249 270 268 264 258 280 286 288 302 293 282 277 278 283 285 290 281 275 273 277 276 277 275 275 271 264 268
240 242 239 238 229 227 243 220 212 248 229 245 203 233 266 191 247 257 256 259 269 267 268 282 290 295 300 291 285 291 288 290 293 284 267 269 275 282 285 286 283 300 294 302
236 234 236 228 229 224 241 225 198 274 230 238 229 207 234 235 261 261 265 252 257 261 272 280 283 278 286 283 285 290 296 299 296 285 277 277 283 286 285 288 301 286 305 305
231 229 233 228 229 222 234 222 200 231 233 226 224 257 266 275 269 257 248 249 247 250 253 265 268 267 273 274 285 287 291 294 288 281 282 282 285 286 286 291 296 301 301 305
227 213 228 228 229 221 216 226 220 221 231 249 253 236 266 277 295 281 253 244 248 245 250 249 252 260 272 280 280 278 281 279 273 266 269 275 279 283 288 293 294 299 302 306
216 209 238 230 231 228 220 223 223 230 221 230 237 238 239 271 311 295 277 248 243 248 251 249 258 267 268 269 272 270 273 276 277 276 272 273 275 281 287 292 295 296 298 301
216 216 224 229 232 219 235 239 227 232 232 252 246 235 259 272 292 299 277 262 254 246 249 254 257 260 259 263 264 267 267 271 273 274 276 279 277 278 281 286 290 294 297 299
212 220 218 221 224 224 227 223 222 240 231 233 253 238 271 260 270 281 273 263 256 255 251 252 256 256 255 256 259 260 261 263 267 271 271 272 275 279 282 286 288 292 293 294
212 222 226 229 242 238 226 229 231 231 243 249 247 255 257 267 283 282 281 269 264 264 265 258 256 259 259 258 257 257 258 262 265 268 272 274 277 280 282 283 285 287 289 291
212 217 219 219 214 228 234 236 233 236 244 248 251 252 257 265 266 255 250 270 264 268 267 269 272 272 271 270 267 265 263 265 267 270 273 273 273 273 276 280 282 285 287 289
214 220 218 219 222 223 228 228 232 241 252 250 256 257 247 262 261 263 263 266 267 266 271 272 271 273 276 278 278 274 269 270 274 273 273 273 274 277 280 281 283 285 288 291
220 221 218 224 224 229 232 232 235 242 245 255 252 254 253 262 269 267 269 265 266 265 268 268 272 276 277 275 275 273 272 272 272 275 278 279 280 282 283 285 287 289 293 295
223 222 224 226 228 232 231 230 229 235 240 249 251 248 246 252 259 268 266 268 265 267 270 272 274 273 272 272 271 270 269 270 273 275 278 281 285 285 287 289 291 293 296 298
220 222 227 228 234 239 229 232 236 248 244 250 253 247 251 257 258 261 263 263 266 271 274 276 276 274 272 271 268 265 265 266 269 273 276 278 280 284 287 290 293 295 297 298
222 226 230 233 232 233 226 231 229 239 249 249 242 244 246 257 255 256 255 265 268 273 276 278 281 279 276 272 269 267 267 269 271 272 275 279 283 286 288 291 293 296 299 301
221 223 227 234 236 234 232 227 228 242 227 250 249 256 254 257 258 261 265 269 273 276 278 278 278 277 274 273 272 271 271 272 275 278 281 283 285 288 292 296 298 299 301 301
225 230 224 234 237 236 235 241 237 251 241 250 257 260 262 262 265 268 271 272 274 277 279 279 276 275 273 272 272 271 274 277 279 281 283 286 289 293 295 298 300 300 301 302
233 227 227 230 239 241 238 243 240 247 260 259 259 261 264 265 266 270 270 272 276 279 279 277 275 273 274 273 270 272 276 279 281 283 287 290 293 295 298 299 300 301 301 302
225 232 230 235 233 243 244 244 251 255 255 262 261 263 266 267 270 271 273 277 280 281 280 278 276 275 275 271 273 277 279 281 283 287 289 292 294 297 299 300 301 301 302 303
227 228 230 231 235 239 244 239 256 253 254 260 267 266 266 269 271 275 279 284 282 277 275 277 277 275 275 276 279 280 282 284 287 288 291 294 296 299 300 300 301 303 305 305
230 235 237 239 240 245 245 244 240 249 259 262 268 266 266 269 271 278 279 285 287 276 275 276 274 274 275 278 279 281 283 285 288 291 294 296 298 298 298 301 302 304 305 304